,,,PA_Meas_PMT16A,,PR_Meas_QMR101_102,,RH_Meas_QMH101,,SR_Meas_QMS101,,TA_Meas_QMH101,,GenWind,,GenWind,
date,time,status,PA,status,PR,status,RH,status,SR,status,TA,status,DirAvg,status,SpdAvg,
2011-08-03, 00:00:05,VALID,1005.21,VALID,0,INVALID,163.67,VALID,0.100563,VALID,24.7335,VALID,7,VALID,0,
2011-08-03, 00:01:05,VALID,1005.17,VALID,0,INVALID,163.723,VALID,0.100563,VALID,24.7121,VALID,7,VALID,0,
2011-08-03, 00:02:05,VALID,1005.16,VALID,0,INVALID,163.685,VALID,0.100563,VALID,24.7316,VALID,7,VALID,0,
2011-08-03, 00:03:05,VALID,1005.16,VALID,0,INVALID,163.678,VALID,0,VALID,24.7529,VALID,7,VALID,0,
2011-08-03, 00:04:05,VALID,1005.12,VALID,0,INVALID,163.67,VALID,0,VALID,24.7529,VALID,7,VALID,0,
2011-08-03, 00:05:05,VALID,1005.11,VALID,0,INVALID,163.67,VALID,0,VALID,24.7529,VALID,7,VALID,0,
2011-08-03, 00:06:05,VALID,1005.06,VALID,0,INVALID,163.685,VALID,0,VALID,24.7335,VALID,6,VALID,0,
2011-08-03, 00:07:05,VALID,1005.06,VALID,0,INVALID,163.685,VALID,0,VALID,24.7529,VALID,7,VALID,0,
2011-08-03, 00:08:05,VALID,1005.03,VALID,0,INVALID,163.655,VALID,0,VALID,24.7548,VALID,7,VALID,0,
2011-08-03, 00:09:05,VALID,1005.02,VALID,0,INVALID,163.678,VALID,0,VALID,24.7335,VALID,6,VALID,0,
2011-08-03, 00:10:05,VALID,1005.01,VALID,0,INVALID,163.678,VALID,0,VALID,24.714,VALID,7,VALID,0,
2011-08-03, 00:11:05,VALID,1004.99,VALID,0,INVALID,163.678,VALID,0,VALID,24.714,VALID,7,VALID,0,
2011-08-03, 00:12:05,VALID,1004.99,VALID,0,INVALID,163.67,VALID,0,VALID,24.6945,VALID,7,VALID,0,
2011-08-03, 00:13:05,VALID,1004.95,VALID,0,INVALID,163.67,VALID,0,VALID,24.6732,VALID,7,VALID,0,
2011-08-03, 00:14:05,VALID,1004.98,VALID,0,INVALID,163.685,VALID,0.100563,VALID,24.6945,VALID,7,VALID,0,
2011-08-03, 00:15:05,VALID,1004.97,VALID,0,INVALID,163.67,VALID,0,VALID,24.6945,VALID,7,VALID,0,
2011-08-03, 00:16:05,VALID,1004.95,VALID,0,INVALID,163.678,VALID,0,VALID,24.714,VALID,7,VALID,0,
2011-08-03, 00:17:05,VALID,1004.93,VALID,0,INVALID,163.693,VALID,0.100563,VALID,24.6732,VALID,7,VALID,0,
2011-08-03, 00:18:05,VALID,1004.94,VALID,0,INVALID,163.708,VALID,0,VALID,24.6732,VALID,7,VALID,0,
2011-08-03, 00:19:05,VALID,1004.92,VALID,0,INVALID,163.647,VALID,0,VALID,24.675,VALID,7,VALID,0,
2011-08-03, 00:20:05,VALID,1004.92,VALID,0,INVALID,163.685,VALID,0,VALID,24.675,VALID,55,VALID,0,
2011-08-03, 00:21:05,VALID,1004.91,VALID,0,INVALID,163.693,VALID,0.100563,VALID,24.6732,VALID,55,VALID,0,
2011-08-03, 00:22:05,VALID,1004.86,VALID,0,INVALID,163.678,VALID,0,VALID,24.6537,VALID,55,VALID,0,
2011-08-03, 00:23:05,VALID,1004.86,VALID,0,INVALID,163.678,VALID,0,VALID,24.675,VALID,55,VALID,0,
2011-08-03, 00:24:05,VALID,1004.83,VALID,0,INVALID,163.67,VALID,0,VALID,24.6537,VALID,55,VALID,0,
2011-08-03, 00:25:05,VALID,1004.78,VALID,0,INVALID,163.693,VALID,0,VALID,24.6556,VALID,55,VALID,0,
2011-08-03, 00:26:05,VALID,1004.75,VALID,0,INVALID,163.67,VALID,0.100563,VALID,24.6556,VALID,55,VALID,0,
2011-08-03, 00:27:05,VALID,1004.71,VALID,0,INVALID,163.67,VALID,0,VALID,24.675,VALID,55,VALID,0,
2011-08-03, 00:28:05,VALID,1004.73,VALID,0,INVALID,163.731,VALID,0,VALID,24.675,VALID,55,VALID,0,
2011-08-03, 00:29:05,VALID,1004.71,VALID,0,INVALID,163.723,VALID,0.100563,VALID,24.675,VALID,55,VALID,0,
2011-08-03, 00:30:05,VALID,1004.68,VALID,0,INVALID,163.685,VALID,0,VALID,24.6945,VALID,55,VALID,0,
2011-08-03, 00:31:05,VALID,1004.67,VALID,0,INVALID,163.708,VALID,0.100563,VALID,24.6945,VALID,52,VALID,0,
2011-08-03, 00:32:05,VALID,1004.66,VALID,0,INVALID,163.67,VALID,0,VALID,24.6945,VALID,36,VALID,0,
2011-08-03, 00:33:05,VALID,1004.64,VALID,0,INVALID,163.678,VALID,0,VALID,24.6945,VALID,17,VALID,0,
2011-08-03, 00:34:05,VALID,1004.61,VALID,0,INVALID,163.693,VALID,0.100563,VALID,24.6945,VALID,17,VALID,0,
2011-08-03, 00:35:05,VALID,1004.62,VALID,0,INVALID,163.693,VALID,0.100563,VALID,24.6945,VALID,17,VALID,0,
2011-08-03, 00:36:05,VALID,1004.61,VALID,0,INVALID,163.685,VALID,0.100563,VALID,24.6945,VALID,17,VALID,0,
2011-08-03, 00:37:05,VALID,1004.59,VALID,0,INVALID,163.693,VALID,0,VALID,24.6945,VALID,17,VALID,0,
2011-08-03, 00:38:05,VALID,1004.56,VALID,0,INVALID,163.67,VALID,0,VALID,24.6732,VALID,17,VALID,0,
2011-08-03, 00:39:05,VALID,1004.55,VALID,0,INVALID,163.67,VALID,0,VALID,24.6945,VALID,17,VALID,0,
2011-08-03, 00:40:05,VALID,1004.52,VALID,0,INVALID,163.701,VALID,0.100563,VALID,24.6945,VALID,17,VALID,0,
2011-08-03, 00:41:05,VALID,1004.5,VALID,0,INVALID,163.67,VALID,0,VALID,24.6945,VALID,17,VALID,0,
2011-08-03, 00:42:05,VALID,1004.47,VALID,0,INVALID,163.731,VALID,0.100563,VALID,24.6945,VALID,17,VALID,0,
2011-08-03, 00:43:05,VALID,1004.44,VALID,0,INVALID,163.701,VALID,0,VALID,24.6732,VALID,17,VALID,0,
2011-08-03, 00:44:05,VALID,1004.4,VALID,0,INVALID,163.708,VALID,0,VALID,24.6945,VALID,17,VALID,0,
2011-08-03, 00:45:05,VALID,1004.41,VALID,0,INVALID,163.708,VALID,0,VALID,24.6732,VALID,17,VALID,0,
2011-08-03, 00:46:05,VALID,1004.39,VALID,0,INVALID,163.685,VALID,0,VALID,24.6945,VALID,17,VALID,0,
2011-08-03, 00:47:05,VALID,1004.36,VALID,0,INVALID,163.685,VALID,0,VALID,24.6926,VALID,17,VALID,0,
2011-08-03, 00:48:05,VALID,1004.34,VALID,0,INVALID,163.655,VALID,0,VALID,24.714,VALID,17,VALID,0,
2011-08-03, 00:49:05,VALID,1004.33,VALID,0,INVALID,163.67,VALID,0,VALID,24.714,VALID,17,VALID,0,
2011-08-03, 00:50:05,VALID,1004.29,VALID,0,INVALID,163.67,VALID,0,VALID,24.7121,VALID,17,VALID,0,
2011-08-03, 00:51:05,VALID,1004.3,VALID,0,INVALID,163.685,VALID,0.100563,VALID,24.714,VALID,17,VALID,0,
2011-08-03, 00:52:05,VALID,1004.25,VALID,0,INVALID,163.693,VALID,0,VALID,24.7353,VALID,17,VALID,0,
2011-08-03, 00:53:05,VALID,1004.23,VALID,0,INVALID,163.731,VALID,0,VALID,24.7335,VALID,24,VALID,0,
2011-08-03, 00:54:05,VALID,1004.23,VALID,0,INVALID,163.685,VALID,0.100563,VALID,24.714,VALID,24,VALID,0,
2011-08-03, 00:55:05,VALID,1004.19,VALID,0,INVALID,163.67,VALID,0,VALID,24.714,VALID,24,VALID,0,
2011-08-03, 00:56:05,VALID,1004.17,VALID,0,INVALID,163.662,VALID,0,VALID,24.714,VALID,24,VALID,0,
2011-08-03, 00:57:05,VALID,1004.12,VALID,0,INVALID,163.678,VALID,0,VALID,24.714,VALID,24,VALID,0,
2011-08-03, 00:58:05,VALID,1004.11,VALID,0,INVALID,163.678,VALID,0,VALID,24.6926,VALID,24,VALID,0,
2011-08-03, 00:59:05,VALID,1004.09,VALID,0,INVALID,163.701,VALID,0,VALID,24.6926,VALID,24,VALID,0,
2011-08-03, 01:00:05,VALID,1004.04,VALID,0,INVALID,163.678,VALID,0.100563,VALID,24.7548,VALID,24,VALID,0,
2011-08-03, 01:01:05,VALID,1004,VALID,0,INVALID,163.678,VALID,0.100563,VALID,24.7335,VALID,24,VALID,0,
2011-08-03, 01:02:05,VALID,1003.99,VALID,0,INVALID,163.701,VALID,0,VALID,24.7121,VALID,24,VALID,0,
2011-08-03, 01:03:05,VALID,1003.97,VALID,0,INVALID,163.678,VALID,0,VALID,24.7316,VALID,24,VALID,0,
2011-08-03, 01:04:05,VALID,1003.94,VALID,0,INVALID,163.739,VALID,0,VALID,24.7529,VALID,24,VALID,0,
2011-08-03, 01:05:05,VALID,1003.92,VALID,0,INVALID,163.685,VALID,0,VALID,24.7529,VALID,24,VALID,0,
2011-08-03, 01:06:05,VALID,1003.88,VALID,0,INVALID,163.685,VALID,0,VALID,24.7529,VALID,24,VALID,0,
2011-08-03, 01:07:05,VALID,1003.88,VALID,0,INVALID,163.662,VALID,0,VALID,24.7743,VALID,24,VALID,0,
2011-08-03, 01:08:05,VALID,1003.84,VALID,0,INVALID,163.701,VALID,0.100563,VALID,24.7529,VALID,24,VALID,0,
2011-08-03, 01:09:05,VALID,1003.83,VALID,0,INVALID,163.685,VALID,0,VALID,24.7529,VALID,24,VALID,0,
2011-08-03, 01:10:05,VALID,1003.78,VALID,0,INVALID,163.716,VALID,0,VALID,24.7529,VALID,24,VALID,0,
2011-08-03, 01:11:05,VALID,1003.74,VALID,0,INVALID,163.678,VALID,0,VALID,24.7335,VALID,24,VALID,0,
2011-08-03, 01:12:05,VALID,1003.7,VALID,0,INVALID,163.685,VALID,0,VALID,24.7353,VALID,24,VALID,0,
2011-08-03, 01:13:05,VALID,1003.68,VALID,0,INVALID,163.693,VALID,0,VALID,24.714,VALID,24,VALID,0,
2011-08-03, 01:14:05,VALID,1003.63,VALID,0,INVALID,163.67,VALID,0,VALID,24.714,VALID,24,VALID,0,
2011-08-03, 01:15:05,VALID,1003.63,VALID,0,INVALID,163.662,VALID,0,VALID,24.7335,VALID,24,VALID,0,
2011-08-03, 01:16:05,VALID,1003.61,VALID,0,INVALID,163.678,VALID,0,VALID,24.7335,VALID,24,VALID,0,
2011-08-03, 01:17:05,VALID,1003.54,VALID,0,INVALID,163.67,VALID,0,VALID,24.714,VALID,24,VALID,0,
2011-08-03, 01:18:05,VALID,1003.54,VALID,0,INVALID,163.678,VALID,0,VALID,24.714,VALID,24,VALID,0,
2011-08-03, 01:19:05,VALID,1003.48,VALID,0,INVALID,163.662,VALID,0,VALID,24.7353,VALID,24,VALID,0,
2011-08-03, 01:20:05,VALID,1003.47,VALID,0,INVALID,163.67,VALID,0,VALID,24.714,VALID,24,VALID,0,
2011-08-03, 01:21:05,VALID,1003.46,VALID,0,INVALID,163.662,VALID,0.100563,VALID,24.7335,VALID,24,VALID,0,
2011-08-03, 01:22:05,VALID,1003.42,VALID,0,INVALID,163.662,VALID,0,VALID,24.7529,VALID,24,VALID,0,
2011-08-03, 01:23:05,VALID,1003.41,VALID,0,INVALID,163.693,VALID,0,VALID,24.7335,VALID,24,VALID,0,
2011-08-03, 01:24:05,VALID,1003.39,VALID,0,INVALID,163.693,VALID,0.100563,VALID,24.7529,VALID,24,VALID,0,
2011-08-03, 01:25:05,VALID,1003.35,VALID,0,INVALID,163.685,VALID,0.100563,VALID,24.7724,VALID,24,VALID,0,
2011-08-03, 01:26:05,VALID,1003.34,VALID,0,INVALID,163.678,VALID,0,VALID,24.7724,VALID,24,VALID,0,
2011-08-03, 01:27:05,VALID,1003.3,VALID,0,INVALID,163.678,VALID,0,VALID,24.7919,VALID,24,VALID,0,
2011-08-03, 01:28:05,VALID,1003.29,VALID,0,INVALID,163.655,VALID,0,VALID,24.8113,VALID,24,VALID,0,
2011-08-03, 01:29:05,VALID,1003.28,VALID,0,INVALID,163.685,VALID,0,VALID,24.7919,VALID,24,VALID,0,
2011-08-03, 01:30:05,VALID,1003.28,VALID,0,INVALID,163.67,VALID,0,VALID,24.8113,VALID,24,VALID,0,
2011-08-03, 01:31:05,VALID,1003.23,VALID,0,INVALID,163.678,VALID,0,VALID,24.7919,VALID,24,VALID,0,
2011-08-03, 01:32:05,VALID,1003.24,VALID,0,INVALID,163.67,VALID,0,VALID,24.751,VALID,24,VALID,0,
2011-08-03, 01:33:05,VALID,1003.22,VALID,0,INVALID,163.662,VALID,0,VALID,24.8132,VALID,24,VALID,0,
2011-08-03, 01:34:05,VALID,1003.21,VALID,0,INVALID,163.655,VALID,0.100563,VALID,24.8132,VALID,24,VALID,0,
2011-08-03, 01:35:05,VALID,1003.2,VALID,0,INVALID,163.693,VALID,0,VALID,24.8132,VALID,24,VALID,0,
2011-08-03, 01:36:05,VALID,1003.2,VALID,0,INVALID,163.701,VALID,0,VALID,24.7919,VALID,24,VALID,0,
2011-08-03, 01:37:05,VALID,1003.21,VALID,0,INVALID,163.655,VALID,0,VALID,24.8132,VALID,24,VALID,0,
2011-08-03, 01:38:05,VALID,1003.21,VALID,0,INVALID,163.662,VALID,0,VALID,24.7919,VALID,24,VALID,0,
2011-08-03, 01:39:05,VALID,1003.2,VALID,0,INVALID,163.678,VALID,0,VALID,24.8113,VALID,24,VALID,0,
2011-08-03, 01:40:05,VALID,1003.21,VALID,0,INVALID,163.662,VALID,0,VALID,24.8132,VALID,24,VALID,0,
2011-08-03, 01:41:05,VALID,1003.2,VALID,0,INVALID,163.647,VALID,0,VALID,24.7919,VALID,24,VALID,0,
2011-08-03, 01:42:05,VALID,1003.19,VALID,0,INVALID,163.708,VALID,0,VALID,24.7529,VALID,24,VALID,0,
2011-08-03, 01:43:05,VALID,1003.16,VALID,0,INVALID,163.678,VALID,0,VALID,24.7743,VALID,24,VALID,0,
2011-08-03, 01:44:05,VALID,1003.14,VALID,0,INVALID,163.685,VALID,0,VALID,24.7335,VALID,24,VALID,0,
2011-08-03, 01:45:05,VALID,1003.17,VALID,0,INVALID,163.723,VALID,0,VALID,24.7335,VALID,24,VALID,0,
2011-08-03, 01:46:05,VALID,1003.13,VALID,0,INVALID,163.678,VALID,0,VALID,24.7548,VALID,24,VALID,0,
2011-08-03, 01:47:05,VALID,1003.12,VALID,0,INVALID,163.678,VALID,0,VALID,24.7335,VALID,24,VALID,0,
2011-08-03, 01:48:05,VALID,1003.12,VALID,0,INVALID,163.678,VALID,0,VALID,24.7353,VALID,24,VALID,0,
2011-08-03, 01:49:05,VALID,1003.13,VALID,0,INVALID,163.723,VALID,0,VALID,24.714,VALID,24,VALID,0,
2011-08-03, 01:50:05,VALID,1003.11,VALID,0,INVALID,163.685,VALID,0,VALID,24.7335,VALID,24,VALID,0,
2011-08-03, 01:51:05,VALID,1003.12,VALID,0,INVALID,163.678,VALID,0,VALID,24.714,VALID,24,VALID,0,
2011-08-03, 01:52:05,VALID,1003.12,VALID,0,INVALID,163.708,VALID,0,VALID,24.714,VALID,24,VALID,0,
2011-08-03, 01:53:05,VALID,1003.11,VALID,0,INVALID,163.67,VALID,0,VALID,24.714,VALID,24,VALID,0,
2011-08-03, 01:54:05,VALID,1003.1,VALID,0,INVALID,163.701,VALID,0,VALID,24.714,VALID,24,VALID,0,
2011-08-03, 01:55:05,VALID,1003.1,VALID,0,INVALID,163.685,VALID,0,VALID,24.6945,VALID,24,VALID,0,
2011-08-03, 01:56:05,VALID,1003.06,VALID,0,INVALID,163.67,VALID,0,VALID,24.6945,VALID,24,VALID,0,
2011-08-03, 01:57:05,VALID,1003.05,VALID,0,INVALID,163.723,VALID,0,VALID,24.6945,VALID,24,VALID,0,
2011-08-03, 01:58:05,VALID,1003.07,VALID,0,INVALID,163.678,VALID,0,VALID,24.675,VALID,24,VALID,0,
2011-08-03, 01:59:05,VALID,1003.04,VALID,0,INVALID,163.685,VALID,0,VALID,24.675,VALID,24,VALID,0,
2011-08-03, 02:00:05,VALID,1003.08,VALID,0,INVALID,163.67,VALID,0,VALID,24.6769,VALID,24,VALID,0,
2011-08-03, 02:01:05,VALID,1003.05,VALID,0,INVALID,163.708,VALID,0,VALID,24.6556,VALID,24,VALID,0,
2011-08-03, 02:02:05,VALID,1003.02,VALID,0,INVALID,163.678,VALID,0,VALID,24.6361,VALID,24,VALID,0,
2011-08-03, 02:03:05,VALID,1003.04,VALID,0,INVALID,163.693,VALID,0,VALID,24.6166,VALID,24,VALID,0,
2011-08-03, 02:04:05,VALID,1003.02,VALID,0,INVALID,163.701,VALID,0,VALID,24.5972,VALID,24,VALID,0,
2011-08-03, 02:05:05,VALID,1002.98,VALID,0,INVALID,163.716,VALID,0,VALID,24.599,VALID,24,VALID,0,
2011-08-03, 02:06:05,VALID,1002.99,VALID,0,INVALID,163.678,VALID,0,VALID,24.5777,VALID,24,VALID,0,
2011-08-03, 02:07:05,VALID,1003.03,VALID,0,INVALID,163.693,VALID,0,VALID,24.5777,VALID,24,VALID,0,
2011-08-03, 02:08:05,VALID,1003.04,VALID,0,INVALID,163.701,VALID,0,VALID,24.5564,VALID,24,VALID,0,
2011-08-03, 02:09:05,VALID,1003.03,VALID,0,INVALID,163.731,VALID,0,VALID,24.5796,VALID,24,VALID,0,
2011-08-03, 02:10:05,VALID,1003.04,VALID,0,INVALID,163.693,VALID,0,VALID,24.5582,VALID,24,VALID,0,
2011-08-03, 02:11:05,VALID,1003.06,VALID,0,INVALID,163.685,VALID,0,VALID,24.5582,VALID,24,VALID,0,
2011-08-03, 02:12:05,VALID,1003.06,VALID,0,INVALID,163.685,VALID,0,VALID,24.5582,VALID,24,VALID,0,
2011-08-03, 02:13:05,VALID,1003.13,VALID,0,INVALID,163.701,VALID,0,VALID,24.5582,VALID,24,VALID,0,
2011-08-03, 02:14:05,VALID,1003.11,VALID,0,INVALID,163.701,VALID,0,VALID,24.5777,VALID,24,VALID,0,
2011-08-03, 02:15:05,VALID,1003.11,VALID,0,INVALID,163.67,VALID,0,VALID,24.5564,VALID,24,VALID,0,
2011-08-03, 02:16:05,VALID,1003.14,VALID,0,INVALID,163.754,VALID,0,VALID,24.5972,VALID,24,VALID,0,
2011-08-03, 02:17:05,VALID,1003.16,VALID,0,INVALID,163.693,VALID,0,VALID,24.5972,VALID,24,VALID,0,
2011-08-03, 02:18:05,VALID,1003.18,VALID,0,INVALID,163.701,VALID,0,VALID,24.5972,VALID,24,VALID,0,
2011-08-03, 02:19:05,VALID,1003.21,VALID,0,INVALID,163.685,VALID,0,VALID,24.6185,VALID,24,VALID,0,
2011-08-03, 02:20:05,VALID,1003.22,VALID,0,INVALID,163.67,VALID,0,VALID,24.5972,VALID,24,VALID,0,
2011-08-03, 02:21:05,VALID,1003.24,VALID,0,INVALID,163.708,VALID,0,VALID,24.5972,VALID,24,VALID,0,
2011-08-03, 02:22:05,VALID,1003.23,VALID,0,INVALID,163.685,VALID,0,VALID,24.638,VALID,24,VALID,0,
2011-08-03, 02:23:05,VALID,1003.27,VALID,0,INVALID,163.678,VALID,0,VALID,24.6166,VALID,24,VALID,0,
2011-08-03, 02:24:05,VALID,1003.24,VALID,0,INVALID,163.678,VALID,0,VALID,24.6166,VALID,24,VALID,0,
2011-08-03, 02:25:05,VALID,1003.23,VALID,0,INVALID,163.693,VALID,0,VALID,24.638,VALID,24,VALID,0,
2011-08-03, 02:26:05,VALID,1003.23,VALID,0,INVALID,163.701,VALID,0,VALID,24.6166,VALID,24,VALID,0,
2011-08-03, 02:27:05,VALID,1003.24,VALID,0,INVALID,163.716,VALID,0,VALID,24.6361,VALID,24,VALID,0,
2011-08-03, 02:28:05,VALID,1003.22,VALID,0,INVALID,163.708,VALID,0,VALID,24.6769,VALID,24,VALID,0,
2011-08-03, 02:29:05,VALID,1003.2,VALID,0,INVALID,163.693,VALID,0,VALID,24.675,VALID,24,VALID,0,
2011-08-03, 02:30:05,VALID,1003.18,VALID,0,INVALID,163.678,VALID,0,VALID,24.675,VALID,24,VALID,0,
2011-08-03, 02:31:05,VALID,1003.2,VALID,0,INVALID,163.685,VALID,0,VALID,24.6556,VALID,24,VALID,0,
2011-08-03, 02:32:05,VALID,1003.18,VALID,0,INVALID,163.647,VALID,0,VALID,24.6556,VALID,24,VALID,0,
2011-08-03, 02:33:04,VALID,1003.17,VALID,0,INVALID,163.685,VALID,0,VALID,24.675,VALID,24,VALID,0,
2011-08-03, 02:34:04,VALID,1003.2,VALID,0,INVALID,163.678,VALID,0,VALID,24.675,VALID,24,VALID,0,
2011-08-03, 02:35:04,VALID,1003.17,VALID,0,INVALID,163.723,VALID,0,VALID,24.675,VALID,24,VALID,0,
2011-08-03, 02:36:04,VALID,1003.2,VALID,0,INVALID,163.662,VALID,0,VALID,24.675,VALID,24,VALID,0,
2011-08-03, 02:37:04,VALID,1003.2,VALID,0,INVALID,163.731,VALID,0,VALID,24.6732,VALID,24,VALID,0,
2011-08-03, 02:38:04,VALID,1003.21,VALID,0,INVALID,163.678,VALID,0,VALID,24.7335,VALID,24,VALID,0,
2011-08-03, 02:39:04,VALID,1003.24,VALID,0,INVALID,163.685,VALID,0,VALID,24.7529,VALID,24,VALID,0,
2011-08-03, 02:40:04,VALID,1003.24,VALID,0,INVALID,163.662,VALID,0,VALID,24.7724,VALID,24,VALID,0,
2011-08-03, 02:41:04,VALID,1003.25,VALID,0,INVALID,163.67,VALID,0,VALID,24.7919,VALID,24,VALID,0,
2011-08-03, 02:42:04,VALID,1003.29,VALID,0,INVALID,163.662,VALID,0,VALID,24.7937,VALID,24,VALID,0,
2011-08-03, 02:43:04,VALID,1003.31,VALID,0,INVALID,163.662,VALID,0,VALID,24.8113,VALID,24,VALID,0,
2011-08-03, 02:44:04,VALID,1003.3,VALID,0,INVALID,163.662,VALID,0,VALID,24.8308,VALID,24,VALID,0,
2011-08-03, 02:45:04,VALID,1003.31,VALID,0,INVALID,163.716,VALID,0,VALID,24.8716,VALID,24,VALID,0,
2011-08-03, 02:46:04,VALID,1003.3,VALID,0,INVALID,163.678,VALID,0,VALID,24.8697,VALID,24,VALID,0,
2011-08-03, 02:47:04,VALID,1003.3,VALID,0,INVALID,163.678,VALID,0,VALID,24.9106,VALID,24,VALID,0,
2011-08-03, 02:48:04,VALID,1003.3,VALID,0,INVALID,163.67,VALID,0,VALID,24.9087,VALID,24,VALID,0,
2011-08-03, 02:49:04,VALID,1003.33,VALID,0,INVALID,163.678,VALID,0,VALID,24.9495,VALID,24,VALID,0,
2011-08-03, 02:50:04,VALID,1003.33,VALID,0,INVALID,163.731,VALID,0,VALID,24.9476,VALID,31,VALID,0,
2011-08-03, 02:51:04,VALID,1003.35,VALID,0,INVALID,163.731,VALID,0,VALID,25.0079,VALID,43,VALID,0,
2011-08-03, 02:52:04,VALID,1003.34,VALID,0,INVALID,163.655,VALID,0,VALID,24.9671,VALID,43,VALID,0,
2011-08-03, 02:53:04,VALID,1003.35,VALID,0,INVALID,163.662,VALID,0,VALID,25.006,VALID,43,VALID,0,
2011-08-03, 02:54:04,VALID,1003.35,VALID,0,INVALID,163.67,VALID,0,VALID,25.0469,VALID,44,VALID,0,
2011-08-03, 02:55:04,VALID,1003.34,VALID,0,INVALID,163.647,VALID,0,VALID,25.045,VALID,49,VALID,0,
2011-08-03, 02:56:04,VALID,1003.35,VALID,0,INVALID,163.685,VALID,0,VALID,25.0644,VALID,49,VALID,0,
2011-08-03, 02:57:04,VALID,1003.35,VALID,0,INVALID,163.67,VALID,0,VALID,25.0858,VALID,49,VALID,0,
2011-08-03, 02:58:04,VALID,1003.37,VALID,0,INVALID,163.655,VALID,0,VALID,25.0839,VALID,49,VALID,0,
2011-08-03, 02:59:04,VALID,1003.39,VALID,0,INVALID,163.655,VALID,0,VALID,25.1053,VALID,49,VALID,0,
2011-08-03, 03:00:04,VALID,1003.4,VALID,0,INVALID,163.685,VALID,0,VALID,25.1248,VALID,49,VALID,0,
2011-08-03, 03:01:04,VALID,1003.42,VALID,0,INVALID,163.639,VALID,0.100563,VALID,25.1229,VALID,49,VALID,0,
2011-08-03, 03:02:04,VALID,1003.36,VALID,0,INVALID,163.639,VALID,0.100563,VALID,25.1637,VALID,49,VALID,0,
2011-08-03, 03:03:04,VALID,1003.39,VALID,0,INVALID,163.632,VALID,0,VALID,25.1229,VALID,49,VALID,0,
2011-08-03, 03:04:04,VALID,1003.38,VALID,0,INVALID,163.716,VALID,0,VALID,25.1442,VALID,49,VALID,0,
2011-08-03, 03:05:04,VALID,1003.38,VALID,0,INVALID,163.67,VALID,0,VALID,25.1423,VALID,49,VALID,0,
2011-08-03, 03:06:04,VALID,1003.39,VALID,0,INVALID,163.708,VALID,0,VALID,25.1442,VALID,49,VALID,0,
2011-08-03, 03:07:04,VALID,1003.4,VALID,0,INVALID,163.701,VALID,0,VALID,25.1229,VALID,49,VALID,0,
2011-08-03, 03:08:04,VALID,1003.38,VALID,0,INVALID,163.678,VALID,0,VALID,25.1229,VALID,49,VALID,0,
2011-08-03, 03:09:04,VALID,1003.4,VALID,0,INVALID,163.662,VALID,0,VALID,25.1229,VALID,49,VALID,0,
2011-08-03, 03:10:04,VALID,1003.37,VALID,0,INVALID,163.639,VALID,0,VALID,25.1442,VALID,49,VALID,0,
2011-08-03, 03:11:04,VALID,1003.37,VALID,0,INVALID,163.678,VALID,0,VALID,25.1229,VALID,49,VALID,0,
2011-08-03, 03:12:04,VALID,1003.38,VALID,0,INVALID,163.624,VALID,0,VALID,25.1442,VALID,49,VALID,0,
2011-08-03, 03:13:04,VALID,1003.37,VALID,0,INVALID,163.639,VALID,0,VALID,25.1229,VALID,49,VALID,0,
2011-08-03, 03:14:04,VALID,1003.4,VALID,0,INVALID,163.662,VALID,0,VALID,25.1423,VALID,49,VALID,0,
2011-08-03, 03:15:04,VALID,1003.4,VALID,0,INVALID,163.647,VALID,0,VALID,25.1423,VALID,49,VALID,0,
2011-08-03, 03:16:04,VALID,1003.4,VALID,0,INVALID,163.662,VALID,0,VALID,25.1423,VALID,49,VALID,0,
2011-08-03, 03:17:04,VALID,1003.41,VALID,0,INVALID,163.67,VALID,0,VALID,25.2027,VALID,49,VALID,0,
2011-08-03, 03:18:04,VALID,1003.43,VALID,0,INVALID,163.67,VALID,0,VALID,25.1618,VALID,49,VALID,0,
2011-08-03, 03:19:04,VALID,1003.44,VALID,0,INVALID,163.693,VALID,0,VALID,25.2027,VALID,49,VALID,0,
2011-08-03, 03:20:04,VALID,1003.43,VALID,0,INVALID,163.67,VALID,0,VALID,25.2027,VALID,49,VALID,0,
2011-08-03, 03:21:04,VALID,1003.43,VALID,0,INVALID,163.647,VALID,0,VALID,25.1813,VALID,49,VALID,0,
2011-08-03, 03:22:04,VALID,1003.45,VALID,0,INVALID,163.647,VALID,0,VALID,25.2027,VALID,49,VALID,0,
2011-08-03, 03:23:04,VALID,1003.45,VALID,0,INVALID,163.655,VALID,0,VALID,25.1813,VALID,49,VALID,0,
2011-08-03, 03:24:04,VALID,1003.44,VALID,0,INVALID,163.655,VALID,0,VALID,25.1813,VALID,49,VALID,0,
2011-08-03, 03:25:04,VALID,1003.46,VALID,0,INVALID,163.655,VALID,0,VALID,25.2027,VALID,49,VALID,0,
2011-08-03, 03:26:04,VALID,1003.47,VALID,0,INVALID,163.678,VALID,0,VALID,25.2027,VALID,49,VALID,0,
2011-08-03, 03:27:04,VALID,1003.51,VALID,0,INVALID,163.617,VALID,0,VALID,25.1618,VALID,50,VALID,0,
2011-08-03, 03:28:04,VALID,1003.49,VALID,0,INVALID,163.678,VALID,0,VALID,25.1832,VALID,49,VALID,0,
2011-08-03, 03:29:04,VALID,1003.5,VALID,0,INVALID,163.639,VALID,0,VALID,25.1423,VALID,49,VALID,0,
2011-08-03, 03:30:04,VALID,1003.52,VALID,0,INVALID,163.639,VALID,0,VALID,25.1637,VALID,49,VALID,0,
2011-08-03, 03:31:04,VALID,1003.53,VALID,0,INVALID,163.639,VALID,0,VALID,25.1442,VALID,49,VALID,0,
2011-08-03, 03:32:04,VALID,1003.5,VALID,0,INVALID,163.67,VALID,0,VALID,25.1618,VALID,49,VALID,0,
2011-08-03, 03:33:04,VALID,1003.56,VALID,0,INVALID,163.678,VALID,0,VALID,25.1618,VALID,49,VALID,0,
2011-08-03, 03:34:04,VALID,1003.56,VALID,0,INVALID,163.639,VALID,0,VALID,25.1813,VALID,49,VALID,0,
2011-08-03, 03:35:04,VALID,1003.59,VALID,0,INVALID,163.662,VALID,0,VALID,25.2027,VALID,53,VALID,0,
2011-08-03, 03:36:04,VALID,1003.6,VALID,0,INVALID,163.662,VALID,0,VALID,25.1813,VALID,53,VALID,0,
2011-08-03, 03:37:04,VALID,1003.61,VALID,0,INVALID,163.632,VALID,0,VALID,25.1618,VALID,53,VALID,0,
2011-08-03, 03:38:04,VALID,1003.62,VALID,0,INVALID,163.655,VALID,0,VALID,25.1618,VALID,63,VALID,0,
2011-08-03, 03:39:04,VALID,1003.61,VALID,0,INVALID,163.655,VALID,0,VALID,25.1618,VALID,69,VALID,0,
2011-08-03, 03:40:04,VALID,1003.62,VALID,0,INVALID,163.632,VALID,0,VALID,25.2007,VALID,117,VALID,0,
2011-08-03, 03:41:04,VALID,1003.64,VALID,0,INVALID,163.655,VALID,0,VALID,25.2202,VALID,117,VALID,0,
2011-08-03, 03:42:04,VALID,1003.68,VALID,0,INVALID,163.655,VALID,0,VALID,25.2397,VALID,117,VALID,0,
2011-08-03, 03:43:04,VALID,1003.68,VALID,0,INVALID,163.639,VALID,0.100563,VALID,25.2397,VALID,117,VALID,0,
2011-08-03, 03:44:04,VALID,1003.7,VALID,0,INVALID,163.678,VALID,0,VALID,25.2397,VALID,117,VALID,0,
2011-08-03, 03:45:04,VALID,1003.71,VALID,0,INVALID,163.647,VALID,0,VALID,25.2611,VALID,117,VALID,0,
2011-08-03, 03:46:04,VALID,1003.75,VALID,0,INVALID,163.693,VALID,0,VALID,25.2611,VALID,113,VALID,0,
2011-08-03, 03:47:04,VALID,1003.76,VALID,0,INVALID,163.632,VALID,0,VALID,25.2397,VALID,113,VALID,0,
2011-08-03, 03:48:04,VALID,1003.79,VALID,0,INVALID,163.693,VALID,0,VALID,25.2397,VALID,113,VALID,0,
2011-08-03, 03:49:04,VALID,1003.79,VALID,0,INVALID,163.617,VALID,0,VALID,25.2397,VALID,113,VALID,0,
2011-08-03, 03:50:04,VALID,1003.81,VALID,0,INVALID,163.693,VALID,0.100563,VALID,25.2202,VALID,113,VALID,0,
2011-08-03, 03:51:04,VALID,1003.8,VALID,0,INVALID,163.662,VALID,0,VALID,25.2007,VALID,113,VALID,0,
2011-08-03, 03:52:04,VALID,1003.82,VALID,0,INVALID,163.632,VALID,0,VALID,25.2007,VALID,113,VALID,0,
2011-08-03, 03:53:04,VALID,1003.83,VALID,0,INVALID,163.678,VALID,0,VALID,25.2221,VALID,113,VALID,0,
2011-08-03, 03:54:04,VALID,1003.82,VALID,0,INVALID,163.632,VALID,0.100563,VALID,25.2007,VALID,113,VALID,0,
2011-08-03, 03:55:04,VALID,1003.83,VALID,0,INVALID,163.662,VALID,0,VALID,25.2221,VALID,113,VALID,0,
2011-08-03, 03:56:04,VALID,1003.82,VALID,0,INVALID,163.617,VALID,0.100563,VALID,25.2221,VALID,113,VALID,0,